Data No, UTC Date,UTC Time,Latitude,Longitude,Course(deg),Temp(degC),Sal(psu)
532,2021/4/10,8:51,42-36.81N,141-37.01E,209,4.714,31.066
533,2021/4/10,8:52,42-36.57N,141-36.84E,206,4.721,31.0901
534,2021/4/10,8:53,42-36.30N,141-36.78E,186,4.734,31.2094
535,2021/4/10,8:54,42-36.03N,141-36.74E,186,4.811,31.2788
536,2021/4/10,8:55,42-35.75N,141-36.70E,185,4.9,31.2959
537,2021/4/10,8:56,42-35.47N,141-36.66E,185,4.901,31.2932
538,2021/4/10,8:57,42-35.19N,141-36.62E,185,4.877,31.2999
539,2021/4/10,8:58,42-34.90N,141-36.58E,185,4.895,31.3029
540,2021/4/10,8:59,42-34.62N,141-36.54E,185,4.915,31.3077
541,2021/4/10,9:00,42-34.33N,141-36.50E,185,4.97,31.302
542,2021/4/10,9:01,42-34.05N,141-36.46E,185,4.984,31.3169
543,2021/4/10,9:02,42-33.80N,141-36.43E,185,4.877,31.3148
544,2021/4/10,9:03,42-33.52N,141-36.38E,186,4.753,31.2974
545,2021/4/10,9:04,42-33.19N,141-36.33E,186,4.607,31.2831
546,2021/4/10,9:05,42-32.90N,141-36.29E,185,4.579,31.2872
547,2021/4/10,9:06,42-32.64N,141-36.26E,185,4.575,31.276
548,2021/4/10,9:07,42-32.37N,141-36.21E,186,4.584,31.2474
549,2021/4/10,9:08,42-32.08N,141-36.17E,186,4.756,31.2362
550,2021/4/10,9:09,42-31.79N,141-36.13E,186,4.841,31.183
551,2021/4/10,9:10,42-31.50N,141-36.09E,186,4.897,31.1243
552,2021/4/10,9:11,42-31.17N,141-36.04E,185,4.877,31.1043
553,2021/4/10,9:12,42-30.88N,141-35.99E,185,4.806,31.0999
554,2021/4/10,9:13,42-30.59N,141-35.93E,188,4.869,31.0992
555,2021/4/10,9:14,42-30.31N,141-35.85E,190,4.858,31.1135
556,2021/4/10,9:15,42-30.02N,141-35.77E,190,4.941,31.1146
557,2021/4/10,9:16,42-29.79N,141-35.70E,192,4.918,31.1156
558,2021/4/10,9:17,42-29.50N,141-35.62E,192,4.912,31.1268
559,2021/4/10,9:18,42-29.22N,141-35.53E,192,4.934,31.1354
560,2021/4/10,9:19,42-28.94N,141-35.45E,192,5.011,31.1362
561,2021/4/10,9:20,42-28.65N,141-35.38E,189,4.952,31.1441
562,2021/4/10,9:21,42-28.37N,141-35.33E,187,4.951,31.1667
563,2021/4/10,9:22,42-28.09N,141-35.29E,185,4.914,31.1927
564,2021/4/10,9:23,42-27.80N,141-35.27E,180,4.866,31.2083
565,2021/4/10,9:24,42-27.52N,141-35.28E,178,4.884,31.2423
566,2021/4/10,9:25,42-27.23N,141-35.29E,177,4.821,31.2722
567,2021/4/10,9:26,42-26.95N,141-35.31E,177,4.763,31.288
568,2021/4/10,9:27,42-26.66N,141-35.33E,178,4.737,31.3118
569,2021/4/10,9:28,42-26.37N,141-35.34E,178,4.715,31.3353
570,2021/4/10,9:29,42-26.08N,141-35.35E,178,4.637,31.3586
571,2021/4/10,9:30,42-25.79N,141-35.36E,178,4.583,31.3865
572,2021/4/10,9:31,42-25.50N,141-35.37E,178,4.453,31.425
573,2021/4/10,9:32,42-25.21N,141-35.38E,178,4.386,31.4478
574,2021/4/10,9:33,42-24.92N,141-35.40E,177,4.351,31.4854
575,2021/4/10,9:34,42-24.64N,141-35.41E,177,4.327,31.4981
576,2021/4/10,9:35,42-24.35N,141-35.43E,177,4.311,31.5176
577,2021/4/10,9:36,42-24.06N,141-35.45E,176,4.26,31.526
578,2021/4/10,9:37,42-23.77N,141-35.47E,177,4.286,31.5364
579,2021/4/10,9:38,42-23.47N,141-35.48E,177,4.284,31.564
580,2021/4/10,9:39,42-23.19N,141-35.50E,177,4.289,31.5708
581,2021/4/10,9:40,42-22.89N,141-35.52E,177,4.352,31.5862
582,2021/4/10,9:41,42-22.60N,141-35.54E,177,4.348,31.5829
583,2021/4/10,9:42,42-22.31N,141-35.56E,176,4.372,31.5931
584,2021/4/10,9:43,42-22.01N,141-35.59E,176,4.415,31.6056
585,2021/4/10,9:44,42-21.72N,141-35.61E,176,4.438,31.6076
586,2021/4/10,9:45,42-21.43N,141-35.63E,177,4.475,31.6191
587,2021/4/10,9:46,42-21.13N,141-35.65E,176,4.454,31.6203
588,2021/4/10,9:47,42-20.83N,141-35.67E,177,4.403,31.6393
589,2021/4/10,9:48,42-20.53N,141-35.70E,177,4.385,31.6415
590,2021/4/10,9:49,42-20.24N,141-35.72E,177,4.301,31.6709
591,2021/4/10,9:50,42-19.94N,141-35.74E,177,4.303,31.6985
592,2021/4/10,9:51,42-19.60N,141-35.76E,176,4.281,31.7149
593,2021/4/10,9:52,42-19.31N,141-35.78E,176,4.13,31.746
594,2021/4/10,9:53,42-19.05N,141-35.80E,176,3.957,31.8013
595,2021/4/10,9:54,42-18.76N,141-35.82E,176,3.895,31.8735
596,2021/4/10,9:55,42-18.46N,141-35.85E,176,3.798,31.9215
597,2021/4/10,9:56,42-18.17N,141-35.87E,176,3.654,31.9418
598,2021/4/10,9:57,42-17.88N,141-35.89E,176,3.612,31.9565
599,2021/4/10,9:58,42-17.58N,141-35.92E,176,3.564,31.9909
600,2021/4/10,9:59,42-17.29N,141-35.94E,176,3.525,31.9928
601,2021/4/10,10:00,42-17.00N,141-35.96E,176,3.519,32.0061
602,2021/4/10,10:01,42-16.71N,141-35.98E,176,3.488,31.9941
603,2021/4/10,10:02,42-16.42N,141-36.00E,176,3.432,31.9992
604,2021/4/10,10:03,42-16.11N,141-36.03E,176,3.469,31.9923
605,2021/4/10,10:04,42-15.82N,141-36.05E,176,3.469,31.9788
606,2021/4/10,10:05,42-15.53N,141-36.07E,177,3.423,31.9813
607,2021/4/10,10:06,42-15.24N,141-36.09E,177,3.486,31.9758
608,2021/4/10,10:07,42-14.95N,141-36.11E,177,3.535,31.9832
609,2021/4/10,10:08,42-14.66N,141-36.13E,177,3.64,31.9763
610,2021/4/10,10:09,42-14.37N,141-36.14E,178,3.68,31.9879
611,2021/4/10,10:10,42-14.08N,141-36.14E,179,3.653,31.9945
612,2021/4/10,10:11,42-13.78N,141-36.14E,180,3.606,31.9903
613,2021/4/10,10:12,42-13.49N,141-36.14E,180,3.634,31.9943
614,2021/4/10,10:13,42-13.20N,141-36.14E,180,3.692,31.9939
615,2021/4/10,10:14,42-12.91N,141-36.14E,180,3.738,32.0039
616,2021/4/10,10:15,42-12.62N,141-36.14E,180,3.785,32.0025
617,2021/4/10,10:16,42-12.32N,141-36.14E,180,3.812,32.0049
618,2021/4/10,10:17,42-12.04N,141-36.13E,180,3.746,32.0151
619,2021/4/10,10:18,42-11.74N,141-36.13E,180,3.678,32.0038
620,2021/4/10,10:19,42-11.46N,141-36.13E,180,3.613,32.008
621,2021/4/10,10:20,42-11.16N,141-36.12E,179,3.595,32.0186
622,2021/4/10,10:21,42-10.86N,141-36.12E,179,3.622,32.0178
623,2021/4/10,10:22,42-10.57N,141-36.12E,179,3.638,31.9996
624,2021/4/10,10:23,42-10.27N,141-36.12E,181,3.651,32.0058
625,2021/4/10,10:24,42-09.98N,141-36.11E,182,3.671,31.9888
626,2021/4/10,10:25,42-09.69N,141-36.09E,182,3.679,31.9978
627,2021/4/10,10:26,42-09.40N,141-36.07E,182,3.682,31.987
628,2021/4/10,10:27,42-09.11N,141-36.06E,182,3.669,31.9938
629,2021/4/10,10:28,42-08.82N,141-36.04E,182,3.683,32.0091
630,2021/4/10,10:29,42-08.53N,141-36.03E,182,3.668,31.9975
631,2021/4/10,10:30,42-08.24N,141-36.01E,182,3.658,31.9972
632,2021/4/10,10:31,42-07.94N,141-36.00E,182,3.656,31.9974
633,2021/4/10,10:32,42-07.65N,141-35.98E,182,3.629,32.0044
634,2021/4/10,10:33,42-07.36N,141-35.96E,182,3.597,32.0022
635,2021/4/10,10:34,42-07.07N,141-35.94E,182,3.581,31.9912
636,2021/4/10,10:35,42-06.78N,141-35.92E,182,3.578,31.9783
637,2021/4/10,10:36,42-06.49N,141-35.90E,182,3.577,31.9848
638,2021/4/10,10:37,42-06.20N,141-35.88E,182,3.569,31.9758
639,2021/4/10,10:38,42-05.91N,141-35.86E,182,3.581,31.9828
640,2021/4/10,10:39,42-05.62N,141-35.85E,182,3.572,31.9691
641,2021/4/10,10:40,42-05.33N,141-35.83E,182,3.61,31.9772
642,2021/4/10,10:41,42-05.03N,141-35.82E,182,3.639,31.9845
643,2021/4/10,10:42,42-04.74N,141-35.80E,182,3.642,31.9871
644,2021/4/10,10:43,42-04.45N,141-35.78E,182,3.644,31.9806
645,2021/4/10,10:44,42-04.16N,141-35.76E,182,3.62,31.9818
646,2021/4/10,10:45,42-03.87N,141-35.75E,182,3.579,31.9758
647,2021/4/10,10:46,42-03.57N,141-35.73E,182,3.558,31.9828
648,2021/4/10,10:47,42-03.25N,141-35.72E,180,3.52,31.9853
649,2021/4/10,10:48,42-02.98N,141-35.71E,180,3.533,31.9797
650,2021/4/10,10:49,42-02.70N,141-35.70E,180,3.541,31.9725
651,2021/4/10,10:50,42-02.41N,141-35.70E,180,3.531,31.9725
652,2021/4/10,10:51,42-02.07N,141-35.70E,179,3.538,31.9694
653,2021/4/10,10:52,42-01.78N,141-35.70E,179,3.54,31.9818
654,2021/4/10,10:53,42-01.53N,141-35.69E,180,3.531,31.9876
655,2021/4/10,10:54,42-01.24N,141-35.68E,180,3.52,31.9923
656,2021/4/10,10:55,42-00.94N,141-35.68E,180,3.584,31.9981
657,2021/4/10,10:56,42-00.64N,141-35.67E,180,3.582,32.0014
658,2021/4/10,10:57,42-00.36N,141-35.66E,181,3.581,32.0054
659,2021/4/10,10:58,42-00.06N,141-35.66E,181,3.595,32.0143
660,2021/4/10,10:59,41-59.76N,141-35.65E,181,3.549,32.0123
661,2021/4/10,11:00,41-59.48N,141-35.64E,181,3.536,32.0272
662,2021/4/10,11:01,41-59.18N,141-35.63E,181,3.519,32.0378
663,2021/4/10,11:02,41-58.89N,141-35.63E,181,3.502,32.0503
664,2021/4/10,11:03,41-58.60N,141-35.62E,181,3.471,32.0613
665,2021/4/10,11:04,41-58.30N,141-35.61E,181,3.527,32.0818
666,2021/4/10,11:05,41-58.01N,141-35.60E,181,3.521,32.079
667,2021/4/10,11:06,41-57.71N,141-35.59E,181,3.47,32.0619
668,2021/4/10,11:07,41-57.43N,141-35.58E,180,3.42,32.0546
669,2021/4/10,11:08,41-57.09N,141-35.58E,179,3.407,32.0469
670,2021/4/10,11:09,41-56.80N,141-35.59E,179,3.405,32.05
671,2021/4/10,11:10,41-56.51N,141-35.59E,179,3.382,32.0432
672,2021/4/10,11:11,41-56.26N,141-35.59E,179,3.365,32.033
673,2021/4/10,11:12,41-55.98N,141-35.59E,179,3.355,32.0388
674,2021/4/10,11:13,41-55.66N,141-35.60E,179,3.428,32.0445
675,2021/4/10,11:14,41-55.36N,141-35.60E,180,3.491,32.046
676,2021/4/10,11:15,41-55.08N,141-35.60E,180,3.546,32.0518
677,2021/4/10,11:16,41-54.78N,141-35.60E,179,3.569,32.0739
678,2021/4/10,11:17,41-54.50N,141-35.60E,179,3.589,32.1022
679,2021/4/10,11:18,41-54.21N,141-35.60E,180,3.589,32.126
680,2021/4/10,11:19,41-53.92N,141-35.60E,179,3.388,32.1652
681,2021/4/10,11:20,41-53.64N,141-35.60E,179,3.177,32.1954
682,2021/4/10,11:21,41-53.40N,141-35.61E,179,3.203,32.1773
683,2021/4/10,11:22,41-53.08N,141-35.62E,178,3.181,32.068
684,2021/4/10,11:23,41-52.80N,141-35.62E,179,3.133,32.0311
685,2021/4/10,11:24,41-52.55N,141-35.62E,179,3.133,32.0038
686,2021/4/10,11:25,41-52.27N,141-35.62E,178,3.158,31.9932
687,2021/4/10,11:26,41-51.95N,141-35.63E,180,3.135,31.9994
688,2021/4/10,11:27,41-51.67N,141-35.62E,180,3.121,31.9945
689,2021/4/10,11:28,41-51.39N,141-35.63E,179,3.141,31.9901
690,2021/4/10,11:29,41-51.11N,141-35.63E,178,3.136,32.0003
691,2021/4/10,11:30,41-50.84N,141-35.63E,179,3.193,32.0161
692,2021/4/10,11:31,41-50.55N,141-35.64E,178,3.259,32.0143
693,2021/4/10,11:32,41-50.28N,141-35.64E,179,3.411,32.0264
694,2021/4/10,11:33,41-50.00N,141-35.64E,179,3.506,32.0279
695,2021/4/10,11:34,41-49.71N,141-35.65E,179,3.599,32.0434
696,2021/4/10,11:35,41-49.43N,141-35.64E,180,3.722,32.0827
697,2021/4/10,11:36,41-49.14N,141-35.64E,180,3.748,32.1093
698,2021/4/10,11:37,41-48.86N,141-35.64E,180,3.768,32.1465
699,2021/4/10,11:38,41-48.58N,141-35.64E,179,3.831,32.183
700,2021/4/10,11:39,41-48.31N,141-35.64E,179,3.848,32.2207
701,2021/4/10,11:40,41-48.05N,141-35.64E,179,3.906,32.2524
702,2021/4/10,11:41,41-47.75N,141-35.64E,179,3.972,32.2771
703,2021/4/10,11:42,41-47.43N,141-35.65E,178,3.993,32.3117
704,2021/4/10,11:43,41-47.15N,141-35.65E,178,4.214,32.3319
705,2021/4/10,11:44,41-46.86N,141-35.66E,179,4.337,32.3728
706,2021/4/10,11:45,41-46.58N,141-35.66E,178,4.463,32.4258
707,2021/4/10,11:46,41-46.29N,141-35.67E,179,4.551,32.4407
708,2021/4/10,11:47,41-46.01N,141-35.67E,179,4.677,32.442
709,2021/4/10,11:48,41-45.77N,141-35.68E,178,4.746,32.4535
710,2021/4/10,11:49,41-45.48N,141-35.69E,178,4.906,32.4717
711,2021/4/10,11:50,41-45.20N,141-35.70E,178,5.118,32.4858
712,2021/4/10,11:51,41-44.91N,141-35.71E,178,5.358,32.5344
713,2021/4/10,11:52,41-44.63N,141-35.72E,177,5.938,32.6093
714,2021/4/10,11:53,41-44.34N,141-35.74E,177,6.788,32.7316
715,2021/4/10,11:54,41-44.05N,141-35.76E,177,7.094,33.0034
716,2021/4/10,11:55,41-43.77N,141-35.77E,178,7.188,33.1669
717,2021/4/10,11:56,41-43.48N,141-35.78E,177,7.265,33.2416
718,2021/4/10,11:57,41-43.20N,141-35.80E,176,7.319,33.3052
719,2021/4/10,11:58,41-42.91N,141-35.82E,175,7.839,33.3475
720,2021/4/10,11:59,41-42.62N,141-35.85E,175,8.18,33.4104
721,2021/4/10,12:00,41-42.34N,141-35.88E,176,8.174,33.4924
722,2021/4/10,12:01,41-42.05N,141-35.89E,177,8.117,33.5098
723,2021/4/10,12:02,41-41.76N,141-35.91E,176,8.147,33.5141
724,2021/4/10,12:03,41-41.47N,141-35.92E,179,8.448,33.5052
725,2021/4/10,12:04,41-41.18N,141-35.92E,180,8.418,33.5676
726,2021/4/10,12:05,41-40.90N,141-35.91E,180,8.38,33.5884
727,2021/4/10,12:06,41-40.60N,141-35.92E,179,8.509,33.5945
728,2021/4/10,12:07,41-40.32N,141-35.92E,178,8.71,33.5925
729,2021/4/10,12:08,41-40.03N,141-35.93E,178,8.837,33.6242
730,2021/4/10,12:09,41-39.74N,141-35.95E,177,8.887,33.6484
731,2021/4/10,12:10,41-39.46N,141-35.96E,177,8.891,33.6586
732,2021/4/10,12:11,41-39.16N,141-35.97E,177,8.857,33.6738
733,2021/4/10,12:12,41-38.88N,141-35.99E,177,8.817,33.682
734,2021/4/10,12:13,41-38.59N,141-36.00E,178,8.842,33.6744
735,2021/4/10,12:14,41-38.29N,141-36.01E,178,8.878,33.6729
736,2021/4/10,12:15,41-38.01N,141-36.02E,178,8.895,33.6772
737,2021/4/10,12:16,41-37.71N,141-36.03E,178,8.904,33.6788
738,2021/4/10,12:17,41-37.42N,141-36.04E,178,8.913,33.6796
739,2021/4/10,12:18,41-37.12N,141-36.05E,178,8.913,33.6805
740,2021/4/10,12:19,41-36.80N,141-36.06E,178,8.914,33.6921
741,2021/4/10,12:20,41-36.51N,141-36.06E,178,8.906,33.6934
742,2021/4/10,12:21,41-36.26N,141-36.07E,178,8.903,33.6855
743,2021/4/10,12:22,41-35.97N,141-36.07E,178,8.897,33.6939
744,2021/4/10,12:23,41-35.68N,141-36.08E,179,8.896,33.683
745,2021/4/10,12:24,41-35.38N,141-36.08E,179,8.894,33.692
746,2021/4/10,12:25,41-35.09N,141-36.08E,179,8.905,33.6774
747,2021/4/10,12:26,41-34.80N,141-36.09E,179,8.923,33.6862
748,2021/4/10,12:27,41-34.50N,141-36.09E,179,8.919,33.682
749,2021/4/10,12:28,41-34.17N,141-36.09E,179,8.928,33.6818
750,2021/4/10,12:29,41-33.87N,141-36.09E,179,8.941,33.684
751,2021/4/10,12:30,41-33.58N,141-36.10E,179,8.938,33.6911
752,2021/4/10,12:31,41-33.29N,141-36.10E,178,8.949,33.6905
753,2021/4/10,12:32,41-32.99N,141-36.12E,178,8.96,33.6934
754,2021/4/10,12:33,41-32.73N,141-36.12E,178,8.96,33.6942
755,2021/4/10,12:34,41-32.44N,141-36.14E,178,8.968,33.6902
756,2021/4/10,12:35,41-32.15N,141-36.14E,179,8.975,33.6887
757,2021/4/10,12:36,41-31.85N,141-36.14E,179,8.987,33.6858
758,2021/4/10,12:37,41-31.55N,141-36.14E,179,8.988,33.6892
759,2021/4/10,12:38,41-31.26N,141-36.14E,179,8.999,33.6937
760,2021/4/10,12:39,41-30.96N,141-36.14E,179,9.013,33.7022
761,2021/4/10,12:40,41-30.67N,141-36.14E,179,9.024,33.6962
762,2021/4/10,12:41,41-30.37N,141-36.14E,179,9.034,33.6988
763,2021/4/10,12:42,41-30.06N,141-36.14E,179,9.027,33.704
764,2021/4/10,12:43,41-29.77N,141-36.14E,180,9.03,33.7095
765,2021/4/10,12:44,41-29.47N,141-36.13E,180,9.019,33.6991
766,2021/4/10,12:45,41-29.18N,141-36.13E,180,9.012,33.7088
767,2021/4/10,12:46,41-28.88N,141-36.13E,179,9.004,33.7066
768,2021/4/10,12:47,41-28.58N,141-36.14E,178,8.996,33.7127
769,2021/4/10,12:48,41-28.25N,141-36.15E,177,8.986,33.7173
770,2021/4/10,12:49,41-27.95N,141-36.17E,177,8.963,33.7132
771,2021/4/10,12:50,41-27.65N,141-36.19E,176,8.956,33.725
772,2021/4/10,12:51,41-27.36N,141-36.22E,175,8.953,33.7233
773,2021/4/10,12:52,41-27.06N,141-36.27E,172,8.936,33.7182
774,2021/4/10,12:53,41-26.81N,141-36.33E,171,8.924,33.7242
775,2021/4/10,12:54,41-26.52N,141-36.39E,170,8.923,33.7188
776,2021/4/10,12:55,41-26.24N,141-36.45E,169,8.82,33.7143
777,2021/4/10,12:56,41-25.96N,141-36.51E,171,8.827,33.7134
778,2021/4/10,12:57,41-25.67N,141-36.56E,171,8.874,33.7145
779,2021/4/10,12:58,41-25.40N,141-36.62E,169,8.895,33.7057
780,2021/4/10,12:59,41-25.11N,141-36.70E,168,8.944,33.7023
781,2021/4/10,13:00,41-24.84N,141-36.77E,169,8.984,33.7017
782,2021/4/10,13:01,41-24.56N,141-36.84E,168,9.017,33.712
783,2021/4/10,13:02,41-24.28N,141-36.91E,169,9.028,33.699
784,2021/4/10,13:03,41-24.00N,141-36.98E,169,9.029,33.7074
785,2021/4/10,13:04,41-23.72N,141-37.04E,169,9.033,33.7109
786,2021/4/10,13:05,41-23.45N,141-37.11E,169,9.036,33.7054
787,2021/4/10,13:06,41-23.17N,141-37.18E,169,9.035,33.7033
788,2021/4/10,13:07,41-22.88N,141-37.25E,169,9.038,33.7083
789,2021/4/10,13:08,41-22.60N,141-37.31E,169,9.053,33.7164
790,2021/4/10,13:09,41-22.32N,141-37.38E,169,9.056,33.7161
791,2021/4/10,13:10,41-22.05N,141-37.45E,169,9.025,33.7113
792,2021/4/10,13:11,41-21.77N,141-37.52E,168,9.005,33.7123
793,2021/4/10,13:12,41-21.48N,141-37.60E,168,9.013,33.7019
794,2021/4/10,13:13,41-21.20N,141-37.67E,169,9.016,33.6983
795,2021/4/10,13:14,41-20.92N,141-37.74E,169,9.022,33.7048
796,2021/4/10,13:15,41-20.64N,141-37.81E,168,9.025,33.7125
797,2021/4/10,13:16,41-20.36N,141-37.88E,168,9.028,33.6989
798,2021/4/10,13:17,41-20.07N,141-37.96E,168,9.034,33.7118
799,2021/4/10,13:18,41-19.79N,141-38.03E,168,9.03,33.7059
800,2021/4/10,13:19,41-19.51N,141-38.11E,168,8.993,33.7124
801,2021/4/10,13:20,41-19.22N,141-38.18E,168,8.992,33.701
802,2021/4/10,13:21,41-18.94N,141-38.26E,168,8.999,33.7062
803,2021/4/10,13:22,41-18.65N,141-38.34E,168,8.991,33.7062
804,2021/4/10,13:23,41-18.37N,141-38.41E,168,8.993,33.6994
805,2021/4/10,13:24,41-18.08N,141-38.49E,168,8.98,33.7022
806,2021/4/10,13:25,41-17.80N,141-38.57E,167,8.973,33.7054
807,2021/4/10,13:26,41-17.52N,141-38.65E,167,8.89,33.7114
808,2021/4/10,13:27,41-17.23N,141-38.73E,167,8.845,33.6999
809,2021/4/10,13:28,41-16.94N,141-38.81E,167,8.848,33.6997
810,2021/4/10,13:29,41-16.66N,141-38.89E,167,8.868,33.7011
811,2021/4/10,13:30,41-16.37N,141-38.98E,167,8.858,33.6948
812,2021/4/10,13:31,41-16.08N,141-39.05E,169,8.862,33.6917
813,2021/4/10,13:32,41-15.79N,141-39.12E,169,8.86,33.7017
814,2021/4/10,13:33,41-15.50N,141-39.19E,169,8.849,33.702
815,2021/4/10,13:34,41-15.21N,141-39.26E,169,8.852,33.6943
816,2021/4/10,13:35,41-14.92N,141-39.33E,169,8.827,33.704
817,2021/4/10,13:36,41-14.63N,141-39.40E,169,8.812,33.6944
818,2021/4/10,13:37,41-14.33N,141-39.47E,169,8.807,33.6969
819,2021/4/10,13:38,41-14.05N,141-39.54E,169,8.792,33.6938
820,2021/4/10,13:39,41-13.76N,141-39.61E,169,8.792,33.6955
821,2021/4/10,13:40,41-13.47N,141-39.68E,169,8.788,33.6974
822,2021/4/10,13:41,41-13.18N,141-39.75E,169,8.778,33.6929
823,2021/4/10,13:42,41-12.89N,141-39.83E,169,8.78,33.6995
824,2021/4/10,13:43,41-12.60N,141-39.90E,169,8.783,33.6936
825,2021/4/10,13:44,41-12.31N,141-39.97E,168,8.787,33.704
826,2021/4/10,13:45,41-12.01N,141-40.05E,169,8.798,33.6944
827,2021/4/10,13:46,41-11.73N,141-40.12E,168,8.807,33.6971
828,2021/4/10,13:47,41-11.43N,141-40.20E,169,8.825,33.6963
829,2021/4/10,13:48,41-11.15N,141-40.27E,169,8.826,33.6927
830,2021/4/10,13:49,41-10.85N,141-40.35E,168,8.795,33.6893
831,2021/4/10,13:50,41-10.56N,141-40.43E,168,8.754,33.6963
832,2021/4/10,13:51,41-10.27N,141-40.51E,168,8.746,33.6975
833,2021/4/10,13:52,41-09.98N,141-40.59E,168,8.739,33.6889
834,2021/4/10,13:53,41-09.69N,141-40.66E,168,8.732,33.6838
835,2021/4/10,13:54,41-09.40N,141-40.74E,168,8.727,33.6711
836,2021/4/10,13:55,41-09.10N,141-40.82E,167,8.717,33.6569
837,2021/4/10,13:56,41-08.81N,141-40.90E,167,8.704,33.6559
838,2021/4/10,13:57,41-08.52N,141-40.98E,167,8.696,33.6594
839,2021/4/10,13:58,41-08.24N,141-41.06E,168,8.682,33.6542
840,2021/4/10,13:59,41-07.95N,141-41.14E,168,8.667,33.6429
841,2021/4/10,14:00,41-07.65N,141-41.22E,168,8.681,33.6512
842,2021/4/10,14:01,41-07.37N,141-41.29E,168,8.696,33.6452
843,2021/4/10,14:02,41-07.07N,141-41.37E,168,8.693,33.6498
844,2021/4/10,14:03,41-06.79N,141-41.45E,168,8.678,33.6484
845,2021/4/10,14:04,41-06.50N,141-41.52E,168,8.666,33.6485
846,2021/4/10,14:05,41-06.21N,141-41.59E,169,8.667,33.6486
847,2021/4/10,14:06,41-05.91N,141-41.67E,169,8.659,33.643
848,2021/4/10,14:07,41-05.59N,141-41.75E,169,8.657,33.6464
849,2021/4/10,14:08,41-05.30N,141-41.82E,169,8.66,33.6295
850,2021/4/10,14:09,41-05.03N,141-41.88E,169,8.67,33.6411
851,2021/4/10,14:10,41-04.72N,141-41.96E,170,8.676,33.6456
852,2021/4/10,14:11,41-04.44N,141-42.02E,170,8.679,33.6371
853,2021/4/10,14:12,41-04.18N,141-42.09E,169,8.688,33.6483
854,2021/4/10,14:13,41-03.90N,141-42.15E,169,8.696,33.6398
855,2021/4/10,14:14,41-03.61N,141-42.22E,170,8.698,33.6486
856,2021/4/10,14:15,41-03.32N,141-42.28E,170,8.711,33.6381
857,2021/4/10,14:16,41-03.03N,141-42.35E,170,8.717,33.6452
858,2021/4/10,14:17,41-02.70N,141-42.42E,170,8.726,33.6455
859,2021/4/10,14:18,41-02.41N,141-42.49E,169,8.726,33.6404
860,2021/4/10,14:19,41-02.12N,141-42.56E,169,8.729,33.6382
861,2021/4/10,14:20,41-01.83N,141-42.63E,169,8.731,33.6484
862,2021/4/10,14:21,41-01.54N,141-42.70E,169,8.737,33.6505
863,2021/4/10,14:22,41-01.25N,141-42.77E,169,8.74,33.6399
864,2021/4/10,14:23,41-00.96N,141-42.84E,169,8.749,33.6521
865,2021/4/10,14:24,41-00.67N,141-42.91E,169,8.754,33.6411
866,2021/4/10,14:25,41-00.42N,141-42.96E,170,8.76,33.6481
867,2021/4/10,14:26,41-00.13N,141-43.03E,170,8.759,33.6419
868,2021/4/10,14:27,40-59.80N,141-43.11E,169,8.756,33.648
869,2021/4/10,14:28,40-59.50N,141-43.18E,169,8.75,33.6393
870,2021/4/10,14:29,40-59.22N,141-43.25E,169,8.744,33.6395
871,2021/4/10,14:30,40-58.93N,141-43.32E,169,8.73,33.646
872,2021/4/10,14:31,40-58.64N,141-43.39E,169,8.702,33.639
873,2021/4/10,14:32,40-58.35N,141-43.46E,169,8.688,33.6468
874,2021/4/10,14:33,40-58.07N,141-43.54E,168,8.675,33.6386
875,2021/4/10,14:34,40-57.79N,141-43.61E,168,8.662,33.6389
876,2021/4/10,14:35,40-57.50N,141-43.69E,168,8.647,33.6317
877,2021/4/10,14:36,40-57.22N,141-43.76E,168,8.624,33.631
878,2021/4/10,14:37,40-56.93N,141-43.84E,169,8.612,33.619
879,2021/4/10,14:38,40-56.65N,141-43.91E,168,8.602,33.6194
880,2021/4/10,14:39,40-56.36N,141-43.99E,168,8.599,33.6203
881,2021/4/10,14:40,40-56.07N,141-44.07E,168,8.591,33.6225
882,2021/4/10,14:41,40-55.80N,141-44.14E,168,8.589,33.6156
883,2021/4/10,14:42,40-55.52N,141-44.22E,169,8.569,33.6151
884,2021/4/10,14:43,40-55.23N,141-44.29E,169,8.557,33.6117
885,2021/4/10,14:44,40-54.93N,141-44.35E,170,8.569,33.6152
886,2021/4/10,14:45,40-54.65N,141-44.42E,170,8.569,33.6054
887,2021/4/10,14:46,40-54.37N,141-44.49E,170,8.577,33.6101
888,2021/4/10,14:47,40-54.08N,141-44.56E,170,8.581,33.6142
889,2021/4/10,14:48,40-53.80N,141-44.64E,169,8.589,33.6084
890,2021/4/10,14:49,40-53.52N,141-44.71E,169,8.603,33.6037
891,2021/4/10,14:50,40-53.23N,141-44.80E,168,8.587,33.6105
892,2021/4/10,14:51,40-52.95N,141-44.87E,169,8.543,33.6127
893,2021/4/10,14:52,40-52.67N,141-44.96E,168,8.498,33.6072
894,2021/4/10,14:53,40-52.39N,141-45.04E,168,8.385,33.6116
895,2021/4/10,14:54,40-52.12N,141-45.14E,166,7.906,33.5911
896,2021/4/10,14:55,40-51.84N,141-45.23E,165,7.521,33.5422
897,2021/4/10,14:56,40-51.57N,141-45.33E,165,7.277,33.4588
898,2021/4/10,14:57,40-51.29N,141-45.43E,165,7.312,33.3945
899,2021/4/10,14:58,40-51.01N,141-45.53E,165,7.32,33.3628
900,2021/4/10,14:59,40-50.74N,141-45.64E,164,7.923,33.3442
901,2021/4/10,15:00,40-50.46N,141-45.74E,165,8.509,33.3442
902,2021/4/10,15:01,40-50.19N,141-45.83E,165,8.372,33.4774
903,2021/4/10,15:02,40-49.91N,141-45.94E,165,8.164,33.5189
904,2021/4/10,15:03,40-49.65N,141-46.06E,165,7.837,33.5124
905,2021/4/10,15:04,40-49.37N,141-46.16E,164,7.52,33.4836
906,2021/4/10,15:05,40-49.13N,141-46.25E,163,7.148,33.4102
907,2021/4/10,15:06,40-48.86N,141-46.36E,163,6.55,33.3478
908,2021/4/10,15:07,40-48.59N,141-46.46E,164,6.199,33.2721
909,2021/4/10,15:08,40-48.27N,141-46.59E,164,6.273,33.1669
910,2021/4/10,15:09,40-47.99N,141-46.69E,164,6.457,33.1288
911,2021/4/10,15:10,40-47.71N,141-46.80E,164,6.646,33.1141
912,2021/4/10,15:11,40-47.44N,141-46.92E,163,7.941,33.1265
913,2021/4/10,15:12,40-47.20N,141-47.01E,162,8.202,33.2698
914,2021/4/10,15:13,40-46.91N,141-47.13E,163,8.289,33.3687
915,2021/4/10,15:14,40-46.61N,141-47.25E,163,8.332,33.4486
916,2021/4/10,15:15,40-46.35N,141-47.36E,162,8.363,33.4941
917,2021/4/10,15:16,40-46.08N,141-47.47E,163,8.342,33.5211
918,2021/4/10,15:17,40-45.80N,141-47.59E,162,8.319,33.5278
919,2021/4/10,15:18,40-45.52N,141-47.70E,163,8.326,33.5274
920,2021/4/10,15:19,40-45.24N,141-47.81E,162,8.428,33.5199
921,2021/4/10,15:20,40-44.96N,141-47.92E,163,8.433,33.5335
922,2021/4/10,15:21,40-44.68N,141-48.03E,163,8.453,33.5501
923,2021/4/10,15:22,40-44.40N,141-48.15E,162,8.514,33.5456
924,2021/4/10,15:23,40-44.11N,141-48.27E,162,8.566,33.5537
925,2021/4/10,15:24,40-43.83N,141-48.38E,163,8.573,33.5792
926,2021/4/10,15:25,40-43.55N,141-48.49E,162,8.577,33.5946
927,2021/4/10,15:26,40-43.27N,141-48.60E,163,8.584,33.594
928,2021/4/10,15:27,40-42.99N,141-48.71E,163,8.582,33.6052
929,2021/4/10,15:28,40-42.71N,141-48.83E,162,8.581,33.6105
930,2021/4/10,15:29,40-42.43N,141-48.93E,163,8.593,33.6071
931,2021/4/10,15:30,40-42.15N,141-49.05E,163,8.603,33.6139
932,2021/4/10,15:31,40-41.87N,141-49.16E,163,8.608,33.6134